NORTHEAST SUFFOLK  -  Special Weather Statement Special Weather Statement        NORTHERN NASSAU  -  Special Weather Statement Special Weather Statement        NORTHWEST SUFFOLK  -  Special Weather Statement Special Weather Statement        SOUTHEAST SUFFOLK  -  Special Weather Statement Special Weather Statement        SOUTHERN NASSAU  -  Special Weather Statement Special Weather Statement        SOUTHWEST SUFFOLK  -  Special Weather Statement Special Weather Statement      

Active alerts

Northern Nassau
  Details for Northern Nassau Special Weather Statement
Southern Nassau
  Details for Southern Nassau Special Weather Statement
Northwest Suffolk
  Details for Northwest Suffolk Special Weather Statement
Southwest Suffolk
  Details for Southwest Suffolk Special Weather Statement
Northeast Suffolk
  Details for Northeast Suffolk Special Weather Statement
Southeast Suffolk
  Details for Southeast Suffolk Special Weather Statement


WXM80 ListenWXM80 Stop

You find our weather info also at:

UK Metoffice

WeatherCloud

Weather Underground

Northeastern Weather Network

AWEKAS

Citizen Weather Observer Program (CWOP)

HAMweather, WeatherForYou, PWS Weather


Weather Underground History page Text

Daily Summary for March 16, 2017 Units:  English    Metric   Both
« Previous Day
Next Day »
Daily Weekly Monthly Yearly Custom
  High: Low: Average:
Temperature: 38.9 °F 25.9 °F 32.2 °F
Dew Point: 19.2 °F 14.7 °F 16.6 °F
Humidity: 68 % 40 % 53 %
Wind Speed: 13.3 mph 2.2 mph 7.7 mph
Wind Gust: 25.3 mph - -
Wind:- - West
Pressure: 30.08 in 29.79 in -
Precipitation: 0.00 in    
Historical Graphs
 
 
Tabular Data for March 16, 2017
Time Temperature Dew Point Pressure Wind Wind Speed Wind Gust Humidity Rainfall Rate (Hourly)
00:02 26.9 °F 16.0 °F 29.79 in WNW 13.3 mph 19.6 mph 63 % 0.00 in
00:07 26.9 °F 16.0 °F 29.80 in NW 7.7 mph 19.6 mph 63 % 0.00 in
00:12 26.9 °F 15.6 °F 29.80 in NW 8.9 mph 18.4 mph 62 % 0.00 in
00:17 26.9 °F 15.6 °F 29.80 in WNW 7.9 mph 23.0 mph 62 % 0.00 in
00:22 26.9 °F 15.6 °F 29.80 in West 9.8 mph 21.0 mph 62 % 0.00 in
00:27 27.0 °F 15.7 °F 29.80 in West 7.3 mph 13.8 mph 62 % 0.00 in
00:32 26.9 °F 15.6 °F 29.81 in WSW 7.7 mph 20.7 mph 62 % 0.00 in
00:37 26.9 °F 15.2 °F 29.81 in West 10.7 mph 16.1 mph 61 % 0.00 in
00:42 27.0 °F 15.3 °F 29.81 in West 9.4 mph 18.4 mph 61 % 0.00 in
00:47 27.1 °F 15.4 °F 29.81 in West 10.5 mph 18.0 mph 61 % 0.00 in
00:52 27.1 °F 15.0 °F 29.81 in SW 12.0 mph 20.0 mph 60 % 0.00 in
00:57 27.1 °F 15.0 °F 29.81 in West 5.5 mph 12.7 mph 60 % 0.00 in
01:02 27.0 °F 14.9 °F 29.81 in WNW 9.6 mph 16.1 mph 60 % 0.00 in
01:07 27.0 °F 15.3 °F 29.81 in SW 9.5 mph 19.6 mph 61 % 0.00 in
01:12 27.0 °F 15.3 °F 29.81 in WNW 10.9 mph 20.7 mph 61 % 0.00 in
01:17 27.0 °F 15.3 °F 29.81 in West 9.4 mph 13.0 mph 61 % 0.00 in
01:22 26.9 °F 15.2 °F 29.81 in WSW 7.8 mph 10.4 mph 61 % 0.00 in
01:28 26.9 °F 15.2 °F 29.82 in WSW 8.7 mph 19.6 mph 61 % 0.00 in
01:33 26.9 °F 15.6 °F 29.82 in WSW 5.3 mph 13.8 mph 62 % 0.00 in
01:38 26.8 °F 15.9 °F 29.82 in SSW 4.7 mph 10.4 mph 63 % 0.00 in
01:43 26.7 °F 16.1 °F 29.83 in West 7.2 mph 9.2 mph 64 % 0.00 in
01:48 26.7 °F 16.1 °F 29.82 in West 10.0 mph 22.0 mph 64 % 0.00 in
01:53 26.7 °F 16.1 °F 29.82 in West 10.0 mph 25.0 mph 64 % 0.00 in
01:58 26.7 °F 15.8 °F 29.82 in WNW 11.7 mph 13.8 mph 63 % 0.00 in
02:03 26.7 °F 16.2 °F 29.82 in West 12.0 mph 20.0 mph 64 % 0.00 in
02:08 26.8 °F 16.2 °F 29.82 in West 6.0 mph 12.0 mph 64 % 0.00 in
02:13 26.8 °F 16.6 °F 29.82 in West 8.0 mph 15.0 mph 65 % 0.00 in
02:18 26.8 °F 17.3 °F 29.82 in West 7.0 mph 20.0 mph 67 % 0.00 in
02:23 26.7 °F 17.2 °F 29.82 in WSW 7.0 mph 17.0 mph 67 % 0.00 in
02:28 26.7 °F 17.6 °F 29.83 in WSW 8.0 mph 20.0 mph 68 % 0.00 in
02:33 26.7 °F 17.6 °F 29.83 in West 6.0 mph 18.0 mph 68 % 0.00 in
02:38 26.7 °F 17.2 °F 29.83 in West 7.0 mph 16.0 mph 67 % 0.00 in
02:43 26.7 °F 17.2 °F 29.83 in West 8.0 mph 18.0 mph 67 % 0.00 in
02:48 26.7 °F 16.9 °F 29.83 in West 8.0 mph 22.0 mph 66 % 0.00 in
02:53 26.6 °F 16.8 °F 29.83 in West 9.0 mph 20.0 mph 66 % 0.00 in
02:58 26.6 °F 16.8 °F 29.83 in West 8.6 mph 18.4 mph 66 % 0.00 in
03:03 26.7 °F 16.5 °F 29.83 in West 9.6 mph 17.3 mph 65 % 0.00 in
03:08 26.7 °F 16.5 °F 29.83 in West 7.7 mph 18.4 mph 65 % 0.00 in
03:13 26.7 °F 16.5 °F 29.83 in West 5.1 mph 16.1 mph 65 % 0.00 in
03:18 26.7 °F 16.1 °F 29.83 in West 10.0 mph 21.0 mph 64 % 0.00 in
03:23 26.7 °F 16.1 °F 29.83 in West 7.0 mph 15.0 mph 64 % 0.00 in
03:28 26.7 °F 15.8 °F 29.83 in West 12.0 mph 21.0 mph 63 % 0.00 in
03:33 26.7 °F 15.8 °F 29.83 in WSW 9.0 mph 17.0 mph 63 % 0.00 in
03:38 26.7 °F 15.8 °F 29.83 in WSW 8.0 mph 15.0 mph 63 % 0.00 in
03:43 26.7 °F 15.4 °F 29.83 in West 8.0 mph 25.0 mph 62 % 0.00 in
03:48 26.7 °F 15.8 °F 29.83 in West 8.0 mph 17.0 mph 63 % 0.00 in
03:53 26.6 °F 15.3 °F 29.83 in West 12.0 mph 20.0 mph 62 % 0.00 in
03:58 26.6 °F 15.3 °F 29.83 in WSW 11.3 mph 21.9 mph 62 % 0.00 in
04:03 26.6 °F 15.3 °F 29.83 in West 12.2 mph 18.4 mph 62 % 0.00 in
04:08 26.6 °F 15.7 °F 29.83 in SW 9.5 mph 21.0 mph 63 % 0.00 in
04:13 26.6 °F 15.3 °F 29.83 in West 11.0 mph 13.0 mph 62 % 0.00 in
04:18 26.6 °F 15.3 °F 29.83 in SW 9.8 mph 17.0 mph 62 % 0.00 in
04:23 26.6 °F 15.3 °F 29.83 in West 2.2 mph 11.5 mph 62 % 0.00 in
04:28 26.6 °F 15.7 °F 29.83 in SW 7.4 mph 19.0 mph 63 % 0.00 in
04:33 26.6 °F 15.3 °F 29.84 in SW 10.6 mph 17.0 mph 62 % 0.00 in
04:38 26.6 °F 15.3 °F 29.83 in West 7.5 mph 15.0 mph 62 % 0.00 in
04:43 26.6 °F 15.3 °F 29.84 in WSW 8.6 mph 13.0 mph 62 % 0.00 in
04:48 26.5 °F 14.9 °F 29.83 in WSW 7.6 mph 13.0 mph 61 % 0.00 in
04:53 26.5 °F 14.9 °F 29.83 in West 5.5 mph 13.0 mph 61 % 0.00 in
04:58 26.5 °F 15.2 °F 29.83 in WSW 9.0 mph 12.7 mph 62 % 0.00 in
05:03 26.4 °F 15.1 °F 29.84 in SW 12.5 mph 17.0 mph 62 % 0.00 in
05:08 26.4 °F 15.1 °F 29.84 in West 8.4 mph 13.8 mph 62 % 0.00 in
05:13 26.4 °F 15.5 °F 29.85 in WNW 6.4 mph 16.1 mph 63 % 0.00 in
05:18 26.3 °F 15.0 °F 29.85 in SSW 7.7 mph 16.1 mph 62 % 0.00 in
05:23 26.3 °F 15.4 °F 29.85 in WNW 8.1 mph 16.1 mph 63 % 0.00 in
05:28 26.2 °F 14.9 °F 29.85 in West 9.7 mph 16.1 mph 62 % 0.00 in
05:33 26.1 °F 14.8 °F 29.85 in North 8.9 mph 20.7 mph 62 % 0.00 in
05:38 26.1 °F 15.2 °F 29.85 in West 10.0 mph 17.3 mph 63 % 0.00 in
05:43 26.1 °F 14.8 °F 29.85 in SW 10.8 mph 19.6 mph 62 % 0.00 in
05:48 26.1 °F 15.2 °F 29.85 in WSW 6.9 mph 18.4 mph 63 % 0.00 in
05:53 26.1 °F 15.2 °F 29.86 in West 8.6 mph 11.5 mph 63 % 0.00 in
05:58 26.0 °F 14.8 °F 29.85 in NW 8.6 mph 18.4 mph 62 % 0.00 in
06:03 26.1 °F 14.8 °F 29.86 in WSW 5.1 mph 11.5 mph 62 % 0.00 in
06:09 26.0 °F 15.1 °F 29.86 in West 8.6 mph 18.4 mph 63 % 0.00 in
06:14 26.0 °F 15.1 °F 29.86 in WNW 10.1 mph 20.7 mph 63 % 0.00 in
06:19 26.0 °F 15.1 °F 29.86 in SW 7.6 mph 11.5 mph 63 % 0.00 in
06:24 26.0 °F 15.1 °F 29.86 in SW 7.1 mph 12.7 mph 63 % 0.00 in
06:29 26.0 °F 14.8 °F 29.86 in SW 5.2 mph 12.7 mph 62 % 0.00 in
06:34 26.0 °F 15.1 °F 29.87 in WSW 8.9 mph 13.8 mph 63 % 0.00 in
06:39 26.0 °F 14.8 °F 29.87 in SSW 6.0 mph 11.5 mph 62 % 0.00 in
06:44 25.9 °F 14.7 °F 29.87 in West 8.1 mph 13.8 mph 62 % 0.00 in
06:49 25.9 °F 15.0 °F 29.88 in WNW 8.4 mph 19.6 mph 63 % 0.00 in
06:54 26.0 °F 15.1 °F 29.88 in West 10.6 mph 17.3 mph 63 % 0.00 in
06:59 26.0 °F 14.8 °F 29.88 in WNW 10.5 mph 21.9 mph 62 % 0.00 in
07:04 26.0 °F 15.1 °F 29.88 in WSW 9.8 mph 16.0 mph 63 % 0.00 in
07:09 26.0 °F 14.8 °F 29.88 in WSW 9.1 mph 12.7 mph 62 % 0.00 in
07:14 26.0 °F 14.8 °F 29.88 in WSW 9.2 mph 12.0 mph 62 % 0.00 in
07:19 26.0 °F 14.8 °F 29.88 in West 9.0 mph 11.5 mph 62 % 0.00 in
07:24 26.0 °F 14.8 °F 29.88 in WSW 12.2 mph 19.6 mph 62 % 0.00 in
07:29 26.0 °F 14.8 °F 29.88 in WSW 4.1 mph 6.9 mph 62 % 0.00 in
07:34 26.1 °F 14.8 °F 29.89 in West 7.8 mph 15.0 mph 62 % 0.00 in
07:39 26.2 °F 15.3 °F 29.89 in WSW 7.2 mph 12.7 mph 63 % 0.00 in
07:44 26.4 °F 15.5 °F 29.89 in WNW 4.7 mph 13.8 mph 63 % 0.00 in
07:49 26.6 °F 15.7 °F 29.89 in WSW 8.6 mph 18.4 mph 63 % 0.00 in
07:54 26.7 °F 15.4 °F 29.89 in WNW 6.1 mph 16.1 mph 62 % 0.00 in
07:59 26.8 °F 15.5 °F 29.89 in SW 7.3 mph 11.5 mph 62 % 0.00 in
08:04 26.9 °F 15.6 °F 29.89 in West 6.5 mph 16.1 mph 62 % 0.00 in
08:10 27.0 °F 15.7 °F 29.90 in WSW 5.3 mph 13.8 mph 62 % 0.00 in
08:14 27.1 °F 15.4 °F 29.90 in WSW 9.8 mph 13.0 mph 61 % 0.00 in
08:19 27.4 °F 15.7 °F 29.90 in WNW 7.1 mph 12.7 mph 61 % 0.00 in
08:24 27.6 °F 15.9 °F 29.90 in West 8.0 mph 15.0 mph 61 % 0.00 in
08:29 27.9 °F 16.2 °F 29.90 in SW 7.0 mph 8.0 mph 61 % 0.00 in
08:34 28.0 °F 15.9 °F 29.90 in WNW 8.7 mph 12.7 mph 60 % 0.00 in
08:39 28.1 °F 16.0 °F 29.90 in West 10.6 mph 15.0 mph 60 % 0.00 in
08:44 28.2 °F 16.1 °F 29.90 in West 8.4 mph 15.0 mph 60 % 0.00 in
08:49 28.5 °F 16.4 °F 29.90 in WSW 6.2 mph 11.5 mph 60 % 0.00 in
08:54 28.8 °F 16.3 °F 29.90 in WSW 8.3 mph 16.1 mph 59 % 0.00 in
08:59 29.0 °F 16.8 °F 29.90 in West 6.4 mph 17.0 mph 60 % 0.00 in
09:04 29.2 °F 16.6 °F 29.91 in WNW 10.1 mph 17.3 mph 59 % 0.00 in
09:09 29.2 °F 16.6 °F 29.90 in West 8.6 mph 19.6 mph 59 % 0.00 in
09:14 29.2 °F 16.2 °F 29.91 in WSW 6.7 mph 15.0 mph 58 % 0.00 in
09:19 29.2 °F 16.6 °F 29.91 in SW 7.8 mph 15.0 mph 59 % 0.00 in
09:24 29.3 °F 16.3 °F 29.91 in SW 8.2 mph 13.8 mph 58 % 0.00 in
09:29 29.5 °F 16.5 °F 29.91 in NW 9.0 mph 17.3 mph 58 % 0.00 in
09:34 29.6 °F 16.2 °F 29.91 in West 7.2 mph 17.3 mph 57 % 0.00 in
09:39 29.7 °F 16.7 °F 29.90 in NW 6.9 mph 13.8 mph 58 % 0.00 in
09:44 29.8 °F 16.4 °F 29.90 in WNW 12.9 mph 21.9 mph 57 % 0.00 in
09:49 29.9 °F 16.9 °F 29.91 in WSW 10.3 mph 13.8 mph 58 % 0.00 in
09:54 30.0 °F 16.6 °F 29.90 in West 9.3 mph 17.3 mph 57 % 0.00 in
09:59 30.1 °F 16.7 °F 29.91 in WNW 7.0 mph 8.1 mph 57 % 0.00 in
10:04 30.4 °F 17.0 °F 29.91 in WNW 7.7 mph 11.5 mph 57 % 0.00 in
10:09 30.7 °F 16.8 °F 29.90 in NW 6.4 mph 12.7 mph 56 % 0.00 in
10:14 30.8 °F 16.5 °F 29.90 in WSW 8.6 mph 15.0 mph 55 % 0.00 in
10:19 30.9 °F 16.6 °F 29.90 in WNW 5.8 mph 12.7 mph 55 % 0.00 in
10:24 31.1 °F 17.2 °F 29.91 in WNW 5.8 mph 12.7 mph 56 % 0.00 in
10:30 31.6 °F 17.3 °F 29.90 in NNW 6.1 mph 12.7 mph 55 % 0.00 in
10:35 31.9 °F 16.7 °F 29.91 in West 10.9 mph 19.6 mph 53 % 0.00 in
10:40 32.1 °F 16.9 °F 29.90 in NW 7.6 mph 17.3 mph 53 % 0.00 in
10:45 32.4 °F 17.2 °F 29.90 in WNW 7.9 mph 15.0 mph 53 % 0.00 in
10:50 32.4 °F 17.2 °F 29.90 in WNW 7.4 mph 16.1 mph 53 % 0.00 in
10:51 32.4 °F 17.2 °F 29.90 in WSW 8.1 mph 15.0 mph 53 % 0.00 in
10:56 32.6 °F 16.9 °F 29.90 in NW 9.7 mph 17.0 mph 52 % 0.00 in
11:01 32.6 °F 16.9 °F 29.91 in NW 7.4 mph 11.5 mph 52 % 0.00 in
11:06 32.8 °F 17.1 °F 29.91 in NNW 7.6 mph 12.7 mph 52 % 0.00 in
11:11 33.0 °F 17.3 °F 29.91 in WNW 7.0 mph 15.0 mph 52 % 0.00 in
11:16 33.2 °F 17.0 °F 29.91 in WNW 6.9 mph 16.1 mph 51 % 0.00 in
11:21 33.3 °F 16.6 °F 29.91 in NW 8.2 mph 16.0 mph 50 % 0.00 in
11:26 33.6 °F 17.8 °F 29.91 in WNW 6.6 mph 12.7 mph 52 % 0.00 in
11:31 34.0 °F 17.7 °F 29.91 in West 6.1 mph 13.8 mph 51 % 0.00 in
11:36 34.5 °F 17.3 °F 29.91 in WNW 7.5 mph 11.5 mph 49 % 0.00 in
11:41 34.6 °F 16.4 °F 29.91 in WSW 9.7 mph 12.0 mph 47 % 0.00 in
11:46 34.8 °F 17.6 °F 29.91 in West 4.9 mph 9.2 mph 49 % 0.00 in
11:51 35.0 °F 17.7 °F 29.91 in WNW 4.6 mph 13.8 mph 49 % 0.00 in
11:56 35.4 °F 17.6 °F 29.90 in WNW 6.6 mph 11.5 mph 48 % 0.00 in
12:02 35.5 °F 17.2 °F 29.91 in West 6.7 mph 13.8 mph 47 % 0.00 in
12:07 35.6 °F 17.3 °F 29.91 in West 8.1 mph 12.7 mph 47 % 0.00 in
12:12 35.7 °F 16.9 °F 29.91 in NW 9.6 mph 10.4 mph 46 % 0.00 in
12:17 35.7 °F 16.4 °F 29.91 in West 8.9 mph 15.0 mph 45 % 0.00 in
12:22 36.0 °F 17.2 °F 29.91 in WNW 4.7 mph 11.5 mph 46 % 0.00 in
12:27 36.0 °F 16.7 °F 29.91 in WSW 6.9 mph 12.7 mph 45 % 0.00 in
12:32 36.2 °F 16.9 °F 29.91 in WNW 8.5 mph 11.5 mph 45 % 0.00 in
12:37 36.3 °F 17.5 °F 29.91 in WNW 7.0 mph 12.7 mph 46 % 0.00 in
12:42 36.5 °F 16.6 °F 29.91 in West 7.3 mph 15.0 mph 44 % 0.00 in
12:47 36.7 °F 17.8 °F 29.91 in WNW 9.1 mph 16.1 mph 46 % 0.00 in
12:52 36.7 °F 17.3 °F 29.91 in WNW 5.8 mph 12.7 mph 45 % 0.00 in
12:57 36.9 °F 16.5 °F 29.91 in WSW 6.0 mph 12.7 mph 43 % 0.00 in
13:02 36.9 °F 16.5 °F 29.91 in WNW 7.0 mph 12.7 mph 43 % 0.00 in
13:07 37.1 °F 16.6 °F 29.91 in West 7.6 mph 11.5 mph 43 % 0.00 in
13:12 37.0 °F 16.5 °F 29.91 in NW 4.7 mph 11.5 mph 43 % 0.00 in
13:17 37.4 °F 16.9 °F 29.91 in WNW 7.0 mph 9.2 mph 43 % 0.00 in
13:18 37.4 °F 16.9 °F 29.90 in West 7.4 mph 11.5 mph 43 % 0.00 in
13:23 37.6 °F 16.0 °F 29.90 in WNW 8.5 mph 15.0 mph 41 % 0.00 in
13:28 37.5 °F 17.0 °F 29.90 in NW 8.1 mph 12.7 mph 43 % 0.00 in
13:33 37.5 °F 15.9 °F 29.90 in West 5.2 mph 9.2 mph 41 % 0.00 in
13:38 37.4 °F 15.8 °F 29.90 in WSW 8.6 mph 12.7 mph 41 % 0.00 in
13:43 37.2 °F 15.6 °F 29.90 in WSW 12.4 mph 20.7 mph 41 % 0.00 in
13:48 37.0 °F 15.5 °F 29.90 in West 7.3 mph 19.0 mph 41 % 0.00 in
13:53 37.0 °F 16.0 °F 29.89 in NW 7.6 mph 15.0 mph 42 % 0.00 in
13:58 37.2 °F 15.1 °F 29.89 in SW 8.7 mph 19.6 mph 40 % 0.00 in
14:03 37.4 °F 16.9 °F 29.89 in WNW 6.8 mph 12.7 mph 43 % 0.00 in
14:08 37.5 °F 16.5 °F 29.89 in West 8.5 mph 13.0 mph 42 % 0.00 in
14:13 37.6 °F 16.5 °F 29.89 in WNW 5.5 mph 10.0 mph 42 % 0.00 in
14:18 37.7 °F 16.1 °F 29.89 in NW 6.7 mph 12.7 mph 41 % 0.00 in
14:23 37.8 °F 16.2 °F 29.89 in WNW 6.8 mph 12.7 mph 41 % 0.00 in
14:28 37.7 °F 16.6 °F 29.88 in WSW 5.9 mph 10.4 mph 42 % 0.00 in
14:33 37.7 °F 16.6 °F 29.88 in SW 10.1 mph 13.8 mph 42 % 0.00 in
14:38 37.9 °F 17.4 °F 29.89 in West 6.0 mph 13.8 mph 43 % 0.00 in
14:43 38.2 °F 17.1 °F 29.88 in West 5.5 mph 13.8 mph 42 % 0.00 in
14:48 38.4 °F 17.3 °F 29.89 in NW 8.2 mph 13.8 mph 42 % 0.00 in
14:54 38.4 °F 16.7 °F 29.89 in West 8.6 mph 17.3 mph 41 % 0.00 in
14:59 38.4 °F 17.8 °F 29.88 in West 6.9 mph 18.4 mph 43 % 0.00 in
15:04 38.5 °F 17.9 °F 29.89 in West 6.9 mph 12.7 mph 43 % 0.00 in
15:09 38.6 °F 18.0 °F 29.89 in WSW 3.3 mph 11.5 mph 43 % 0.00 in
15:14 38.7 °F 17.5 °F 29.89 in WNW 7.1 mph 16.1 mph 42 % 0.00 in
15:19 38.6 °F 17.5 °F 29.89 in WNW 5.4 mph 12.7 mph 42 % 0.00 in
15:24 38.6 °F 16.9 °F 29.88 in West 7.3 mph 12.7 mph 41 % 0.00 in
15:28 38.5 °F 16.8 °F 29.88 in WNW 9.7 mph 18.4 mph 41 % 0.00 in
15:33 38.5 °F 17.4 °F 29.89 in WNW 5.5 mph 16.1 mph 42 % 0.00 in
15:38 38.6 °F 17.5 °F 29.88 in WNW 6.0 mph 14.0 mph 42 % 0.00 in
15:43 38.6 °F 17.5 °F 29.88 in West 7.0 mph 16.0 mph 42 % 0.00 in
15:48 38.6 °F 17.5 °F 29.88 in West 8.0 mph 13.0 mph 42 % 0.00 in
15:53 38.7 °F 17.5 °F 29.88 in West 8.0 mph 14.0 mph 42 % 0.00 in
15:58 38.8 °F 18.2 °F 29.88 in West 8.2 mph 13.0 mph 43 % 0.00 in
16:03 38.8 °F 17.1 °F 29.88 in WNW 8.0 mph 14.0 mph 41 % 0.00 in
16:08 38.8 °F 17.1 °F 29.87 in West 6.0 mph 14.0 mph 41 % 0.00 in
16:13 38.9 °F 17.2 °F 29.88 in WNW 9.0 mph 16.0 mph 41 % 0.00 in
16:18 38.8 °F 17.6 °F 29.88 in WNW 7.0 mph 20.0 mph 42 % 0.00 in
16:23 38.7 °F 17.0 °F 29.87 in West 9.0 mph 20.0 mph 41 % 0.00 in
16:28 38.6 °F 17.5 °F 29.88 in WNW 6.0 mph 16.0 mph 42 % 0.00 in
16:33 38.6 °F 17.5 °F 29.87 in WNW 8.0 mph 15.0 mph 42 % 0.00 in
16:38 38.6 °F 16.9 °F 29.88 in WNW 6.0 mph 13.0 mph 41 % 0.00 in
16:43 38.5 °F 16.8 °F 29.88 in WNW 5.0 mph 13.0 mph 41 % 0.00 in
16:48 38.5 °F 16.2 °F 29.88 in WNW 10.0 mph 18.0 mph 40 % 0.00 in
16:53 38.3 °F 16.6 °F 29.88 in WNW 6.0 mph 20.0 mph 41 % 0.00 in
16:58 38.2 °F 17.6 °F 29.88 in NW 9.0 mph 15.0 mph 43 % 0.00 in
17:03 38.2 °F 17.1 °F 29.88 in NW 11.4 mph 16.1 mph 42 % 0.00 in
17:08 38.1 °F 17.0 °F 29.89 in WNW 6.3 mph 12.7 mph 42 % 0.00 in
17:13 38.2 °F 17.1 °F 29.89 in WNW 9.5 mph 18.0 mph 42 % 0.00 in
17:18 38.2 °F 17.1 °F 29.89 in NW 8.2 mph 13.8 mph 42 % 0.00 in
17:23 38.1 °F 16.4 °F 29.89 in West 9.7 mph 17.3 mph 41 % 0.00 in
17:28 38.2 °F 17.1 °F 29.89 in West 9.0 mph 16.1 mph 42 % 0.00 in
17:33 38.2 °F 17.1 °F 29.89 in WNW 4.6 mph 15.0 mph 42 % 0.00 in
17:38 38.2 °F 17.1 °F 29.89 in West 6.9 mph 8.1 mph 42 % 0.00 in
17:43 38.2 °F 16.5 °F 29.89 in WNW 4.9 mph 12.7 mph 41 % 0.00 in
17:48 38.2 °F 17.1 °F 29.89 in WNW 7.2 mph 13.8 mph 42 % 0.00 in
17:54 38.1 °F 17.0 °F 29.89 in NW 8.3 mph 15.0 mph 42 % 0.00 in
17:59 38.0 °F 17.5 °F 29.89 in WNW 7.9 mph 16.1 mph 43 % 0.00 in
18:04 37.9 °F 17.9 °F 29.90 in NNW 7.0 mph 12.7 mph 44 % 0.00 in
18:09 37.9 °F 16.8 °F 29.90 in WNW 5.3 mph 9.2 mph 42 % 0.00 in
18:14 37.8 °F 17.8 °F 29.90 in WSW 7.0 mph 11.5 mph 44 % 0.00 in
18:19 37.7 °F 17.7 °F 29.91 in NW 5.2 mph 11.0 mph 44 % 0.00 in
18:24 37.6 °F 17.6 °F 29.91 in WNW 9.5 mph 15.0 mph 44 % 0.00 in
18:29 37.5 °F 17.5 °F 29.91 in WNW 4.1 mph 10.4 mph 44 % 0.00 in
18:34 37.5 °F 18.1 °F 29.91 in West 5.6 mph 9.2 mph 45 % 0.00 in
18:39 37.4 °F 18.0 °F 29.92 in West 7.2 mph 11.5 mph 45 % 0.00 in
18:44 37.3 °F 17.9 °F 29.92 in NW 3.7 mph 12.7 mph 45 % 0.00 in
18:49 37.2 °F 18.3 °F 29.92 in NNW 5.8 mph 11.5 mph 46 % 0.00 in
18:54 37.1 °F 18.2 °F 29.92 in WNW 8.9 mph 12.7 mph 46 % 0.00 in
18:59 37.0 °F 17.1 °F 29.92 in WNW 7.1 mph 11.5 mph 44 % 0.00 in
19:04 36.9 °F 18.0 °F 29.93 in WNW 7.6 mph 11.5 mph 46 % 0.00 in
19:09 36.8 °F 17.4 °F 29.93 in WNW 6.4 mph 9.2 mph 45 % 0.00 in
19:14 36.7 °F 17.3 °F 29.93 in NW 5.4 mph 9.2 mph 45 % 0.00 in
19:20 36.6 °F 17.7 °F 29.93 in WNW 6.0 mph 13.8 mph 46 % 0.00 in
19:25 36.5 °F 17.7 °F 29.94 in NW 6.7 mph 8.1 mph 46 % 0.00 in
19:30 36.5 °F 17.1 °F 29.94 in WNW 5.2 mph 8.1 mph 45 % 0.00 in
19:35 36.4 °F 17.6 °F 29.94 in NW 5.5 mph 10.0 mph 46 % 0.00 in
19:40 36.4 °F 17.6 °F 29.95 in NW 6.0 mph 10.4 mph 46 % 0.00 in
19:45 36.4 °F 16.5 °F 29.95 in NW 4.4 mph 16.1 mph 44 % 0.00 in
19:50 36.3 °F 17.5 °F 29.96 in NW 4.6 mph 11.0 mph 46 % 0.00 in
19:55 36.3 °F 18.9 °F 29.96 in WNW 5.4 mph 9.2 mph 49 % 0.00 in
20:00 36.2 °F 18.9 °F 29.96 in WNW 6.1 mph 10.4 mph 49 % 0.00 in
20:05 36.1 °F 19.2 °F 29.97 in NW 5.0 mph 11.5 mph 50 % 0.00 in
20:10 36.0 °F 19.1 °F 29.97 in West 3.2 mph 10.0 mph 50 % 0.00 in
20:15 35.9 °F 18.6 °F 29.97 in WNW 5.7 mph 8.1 mph 49 % 0.00 in
20:20 35.7 °F 17.4 °F 29.98 in NW 3.8 mph 5.8 mph 47 % 0.00 in
20:25 35.7 °F 17.9 °F 29.98 in WNW 4.6 mph 9.0 mph 48 % 0.00 in
20:30 35.7 °F 16.9 °F 29.98 in NW 9.1 mph 16.0 mph 46 % 0.00 in
20:35 35.6 °F 16.3 °F 29.99 in West 9.0 mph 18.4 mph 45 % 0.00 in
20:41 35.6 °F 16.8 °F 29.99 in West 3.4 mph 6.9 mph 46 % 0.00 in
20:46 35.5 °F 16.2 °F 29.99 in West 5.7 mph 15.0 mph 45 % 0.00 in
20:51 35.4 °F 17.1 °F 30.00 in NW 5.4 mph 11.5 mph 47 % 0.00 in
20:56 35.3 °F 18.0 °F 30.00 in West 3.7 mph 8.1 mph 49 % 0.00 in
21:01 35.3 °F 17.1 °F 30.00 in WNW 5.6 mph 10.4 mph 47 % 0.00 in
21:11 35.1 °F 17.4 °F 30.01 in West 7.6 mph 14.0 mph 48 % 0.00 in
21:16 35.1 °F 17.4 °F 30.01 in NW 5.5 mph 10.4 mph 48 % 0.00 in
21:21 35.0 °F 16.8 °F 30.02 in NNW 10.9 mph 18.0 mph 47 % 0.00 in
21:26 35.0 °F 16.8 °F 30.02 in WNW 9.8 mph 17.0 mph 47 % 0.00 in
21:31 35.0 °F 17.7 °F 30.02 in NW 6.2 mph 15.0 mph 49 % 0.00 in
21:36 34.9 °F 17.2 °F 30.03 in WNW 6.6 mph 10.4 mph 48 % 0.00 in
21:41 34.8 °F 16.1 °F 30.03 in NW 7.5 mph 17.3 mph 46 % 0.00 in
21:46 34.7 °F 16.5 °F 30.03 in WNW 8.6 mph 13.8 mph 47 % 0.00 in
21:51 34.7 °F 16.5 °F 30.04 in WSW 9.5 mph 15.0 mph 47 % 0.00 in
21:56 34.6 °F 15.4 °F 30.04 in NW 11.1 mph 18.4 mph 45 % 0.00 in
22:01 34.5 °F 16.8 °F 30.04 in WNW 8.2 mph 16.1 mph 48 % 0.00 in
22:06 34.4 °F 16.7 °F 30.05 in NW 9.1 mph 16.1 mph 48 % 0.00 in
22:11 34.3 °F 16.6 °F 30.05 in West 10.4 mph 18.4 mph 48 % 0.00 in
22:16 34.2 °F 16.5 °F 30.05 in NW 8.6 mph 15.0 mph 48 % 0.00 in
22:21 34.1 °F 16.4 °F 30.05 in NNW 9.7 mph 25.3 mph 48 % 0.00 in
22:26 34.1 °F 16.4 °F 30.05 in WNW 11.1 mph 23.0 mph 48 % 0.00 in
22:31 34.0 °F 17.7 °F 30.05 in NNW 8.7 mph 17.3 mph 51 % 0.00 in
22:36 33.9 °F 17.2 °F 30.06 in WNW 10.6 mph 15.0 mph 50 % 0.00 in
22:41 33.8 °F 17.1 °F 30.06 in NW 11.4 mph 17.3 mph 50 % 0.00 in
22:46 33.8 °F 18.0 °F 30.06 in NNW 8.1 mph 13.8 mph 52 % 0.00 in
22:51 33.7 °F 17.9 °F 30.06 in NNW 3.5 mph 12.7 mph 52 % 0.00 in
22:57 33.5 °F 17.7 °F 30.06 in NW 6.6 mph 13.0 mph 52 % 0.00 in
23:02 33.4 °F 17.2 °F 30.06 in NW 6.6 mph 10.4 mph 51 % 0.00 in
23:07 33.4 °F 17.6 °F 30.07 in WNW 8.3 mph 14.0 mph 52 % 0.00 in
23:12 33.3 °F 18.0 °F 30.06 in NW 5.9 mph 16.1 mph 53 % 0.00 in
23:17 33.2 °F 17.9 °F 30.06 in West 7.2 mph 16.1 mph 53 % 0.00 in
23:22 33.1 °F 17.4 °F 30.07 in NW 8.8 mph 15.0 mph 52 % 0.00 in
23:27 33.0 °F 16.8 °F 30.07 in WNW 8.3 mph 16.1 mph 51 % 0.00 in
23:32 33.0 °F 17.3 °F 30.07 in NW 6.3 mph 10.4 mph 52 % 0.00 in
23:37 33.0 °F 17.7 °F 30.07 in WNW 2.8 mph 5.8 mph 53 % 0.00 in
23:42 32.9 °F 18.1 °F 30.07 in NW 5.6 mph 10.0 mph 54 % 0.00 in
23:47 32.8 °F 18.0 °F 30.07 in NW 5.2 mph 13.8 mph 54 % 0.00 in
23:52 32.8 °F 18.4 °F 30.07 in WNW 5.7 mph 8.0 mph 55 % 0.00 in
23:57 32.8 °F 18.4 °F 30.08 in NW 5.5 mph 15.0 mph 55 % 0.00 in
Crab Meadow Weather
Compliments of Weather Underground - 3 mb

Script developed by  Jim McMurry - jmcmurry@mwt.net Adapted for the template by  Wim van der Kuil - Leuven-Template.eu

Lightning: The chances of being hit by lightning is 1:28,500.